User: anonymous   Login
Location: Hancock Field Station
(44.9202°N, 120.4259°W)
Time: 08:11:45
(UTC-07:00)
Language:

Cosmos 1707 - Orbit

View from above orbital plane
View from above orbital plane
View from above satellite
View from above satellite

Ground track
Ground track

The orbit data is extracted from the following two-line orbital elements,

1 16326U 85113A   15244.79093909  .00001114  00000-0  63841-4 0  9991
2 16326  82.5130 130.4988 0012664  45.0628 315.1627 15.11545395618421
Epoch (UTC): 01 September 2015 18:58:57
Eccentricity: 0.0012664
inclination: 82.5130°
perigee height: 523 km
apogee height: 540 km
right ascension of ascending node: 130.4988°
argument of perigee: 45.0628°
revolutions per day: 15.11545395
mean anomaly at epoch: 315.1627°
orbit number at epoch: 61842

The dashed part of the orbit path shows where the satellite is in the earth's shadow,  

DLR